Satellite: SO-50
Catalog number: 27607
Epoch time:      12257.80261858
Element set:     863
Inclination:      064.5586 deg
RA of node:       025.3098 deg
Eccentricity:    0.0077443
Arg of perigee:   230.8660 deg
Mean anomaly:     128.5531 deg
Mean motion:   14.72506215 rev/day
Decay rate:       6.87e-06 rev/day^2
Epoch rev:           52301
Checksum:              310

Satellite: CO-55
Catalog number: 27844
Epoch time:      12256.51208996
Element set:    0462
Inclination:      098.7060 deg
RA of node:       263.6304 deg
Eccentricity:    0.0009624
Arg of perigee:   337.3709 deg
Mean anomaly:     022.7033 deg
Mean motion:   14.21070443 rev/day
Decay rate:       3.00e-06 rev/day^2
Epoch rev:           47729
Checksum:              295

Satellite: CO-57
Catalog number: 27848
Epoch time:      12256.53116840
Element set:    0412
Inclination:      098.7129 deg
RA of node:       263.0213 deg
Eccentricity:    0.0009503
Arg of perigee:   342.2648 deg
Mean anomaly:     017.8180 deg
Mean motion:   14.20816158 rev/day
Decay rate:       2.57e-06 rev/day^2
Epoch rev:           47723
Checksum:              299

Satellite: AO-51
Catalog number: 28375
Epoch time:      12257.89179708
Element set:     364
Inclination:      098.1576 deg
RA of node:       219.0906 deg
Eccentricity:    0.0083790
Arg of perigee:   131.6239 deg
Mean anomaly:     229.2185 deg
Mean motion:   14.40984362 rev/day
Decay rate:       1.46e-06 rev/day^2
Epoch rev:           43154
Checksum:              333

Satellite: CP3
Catalog number: 31129
Epoch time:      12257.56404650
Element set:     262
Inclination:      097.8828 deg
RA of node:       260.1533 deg
Eccentricity:    0.0100262
Arg of perigee:   207.5873 deg
Mean anomaly:     151.9984 deg
Mean motion:   14.53203640 rev/day
Decay rate:       7.51e-06 rev/day^2
Epoch rev:           28681
Checksum:              293

Satellite: CO-65
Catalog number: 32785
Epoch time:      12256.81858655
Element set:     413
Inclination:      097.7891 deg
RA of node:       315.7636 deg
Eccentricity:    0.0015750
Arg of perigee:   132.3688 deg
Mean anomaly:     227.8772 deg
Mean motion:   14.83180062 rev/day
Decay rate:      1.129e-05 rev/day^2
Epoch rev:           23675
Checksum:              340

Satellite: PRISM
Catalog number: 33493
Epoch time:      12257.78611450
Element set:      67
Inclination:      098.1832 deg
RA of node:       040.5464 deg
Eccentricity:    0.0018945
Arg of perigee:   013.4631 deg
Mean anomaly:     346.7072 deg
Mean motion:   14.84313438 rev/day
Decay rate:      2.955e-05 rev/day^2
Epoch rev:           19689
Checksum:              313

Satellite: SOHLA-1
Catalog number: 33496
Epoch time:      12256.91206372
Element set:    0852
Inclination:      098.1116 deg
RA of node:       008.1043 deg
Eccentricity:    0.0007389
Arg of perigee:   116.3123 deg
Mean anomaly:     243.8837 deg
Mean motion:   14.70040256 rev/day
Decay rate:       3.16e-06 rev/day^2
Epoch rev:           19513
Checksum:              276

Satellite: SO-67
Catalog number: 35870
Epoch time:      12257.81115994
Element set:     323
Inclination:      097.2259 deg
RA of node:       290.4431 deg
Eccentricity:    0.0001601
Arg of perigee:   162.3906 deg
Mean anomaly:     285.3348 deg
Mean motion:   15.24493761 rev/day
Decay rate:      3.910e-05 rev/day^2
Epoch rev:           16611
Checksum:              303

Satellite: TISAT-1
Catalog number: 36799
Epoch time:      12257.78312188
Element set:     342
Inclination:      098.0562 deg
RA of node:       334.7520 deg
Eccentricity:    0.0013592
Arg of perigee:   242.9105 deg
Mean anomaly:     117.0689 deg
Mean motion:   14.82235329 rev/day
Decay rate:      1.905e-05 rev/day^2
Epoch rev:           11761
Checksum:              307

Satellite: STUDSAT
Catalog number: 36801
Epoch time:      12257.83160594
Element set:     470
Inclination:      098.0640 deg
RA of node:       335.9408 deg
Eccentricity:    0.0011763
Arg of perigee:   228.6388 deg
Mean anomaly:     131.3808 deg
Mean motion:   14.85101785 rev/day
Decay rate:      5.657e-05 rev/day^2
Epoch rev:           11767
Checksum:              313

Satellite: FO-69
Catalog number: 37227
Epoch time:      12257.48491356
Element set:    0283
Inclination:      071.9693 deg
RA of node:       117.1058 deg
Eccentricity:    0.0016859
Arg of perigee:   161.4476 deg
Mean anomaly:     198.7304 deg
Mean motion:   14.77165136 rev/day
Decay rate:       5.07e-06 rev/day^2
Epoch rev:           04913
Checksum:              334

Satellite: FO-70
Catalog number: 37380
Epoch time:      12257.50537911
Element set:    0287
Inclination:      071.9726 deg
RA of node:       117.7321 deg
Eccentricity:    0.0017300
Arg of perigee:   158.0228 deg
Mean anomaly:     202.1680 deg
Mean motion:   14.76915712 rev/day
Decay rate:       4.70e-06 rev/day^2
Epoch rev:           04902
Checksum:              282

Satellite: ALMASAT-1
Catalog number: 38078
Epoch time:      12257.75916272
Element set:     561
Inclination:      069.4820 deg
RA of node:       116.2414 deg
Eccentricity:    0.0745153
Arg of perigee:   137.8145 deg
Mean anomaly:     228.2826 deg
Mean motion:   14.12084209 rev/day
Decay rate:     1.8436e-04 rev/day^2
Epoch rev:            3004
Checksum:              295

